This is the latest recevied weather packets stored in our database for station/object 4S6DRJ-13. If no packets are shown the sender has not sent any weather packets the latest 10 day(s).
| Time | Temp. | Humidity | Pressure | Rain* | Wind** | Luminosity | Snow |
|---|---|---|---|---|---|---|---|
| 1777593673 | 26.67° C | 91% | 1006.8 hPa | 0 mm | 1.34 m/s, 98° | 0 W/m² | - |
| 1777593612 | 26.67° C | 91% | 1006.8 hPa | 0 mm | 1.34 m/s, 105° | 0 W/m² | - |
| 1777593551 | 26.67° C | 91% | 1006.8 hPa | 0 mm | 1.34 m/s, 121° | 0 W/m² | - |
| 1777593490 | 26.67° C | 91% | 1006.8 hPa | 0 mm | 0.89 m/s, 87° | 0 W/m² | - |
| 1777593429 | 26.67° C | 91% | 1006.7 hPa | 0 mm | 1.34 m/s, 144° | 0 W/m² | - |
| 1777593368 | 26.67° C | 91% | 1006.9 hPa | 0 mm | 0.89 m/s, 134° | 0 W/m² | - |
| 1777593307 | 26.67° C | 91% | 1006.8 hPa | 0 mm | 1.34 m/s, 148° | 0 W/m² | - |
| 1777593246 | 26.67° C | 91% | 1006.6 hPa | 0 mm | 1.34 m/s, 133° | 0 W/m² | - |
| 1777593185 | 26.67° C | 91% | 1006.7 hPa | 0 mm | 1.34 m/s, 111° | 0 W/m² | - |
| 1777593124 | 26.67° C | 91% | 1006.7 hPa | 0 mm | 1.79 m/s, 142° | 0 W/m² | - |
| 1777593063 | 26.67° C | 92% | 1006.8 hPa | 0 mm | 1.34 m/s, 104° | 0 W/m² | - |
| 1777593002 | 26.67° C | 92% | 1006.8 hPa | 0 mm | 0.89 m/s, 115° | 0 W/m² | - |
| 1777592942 | 26.11° C | 92% | 1006.8 hPa | 0 mm | 0.89 m/s, 134° | 0 W/m² | - |
| 1777592880 | 26.11° C | 92% | 1006.7 hPa | 0 mm | 0.45 m/s, 135° | 0 W/m² | - |
| 1777592819 | 26.11° C | 92% | 1006.6 hPa | 0 mm | 1.34 m/s, 107° | 0 W/m² | - |
| 1777592758 | 26.11° C | 92% | 1006.7 hPa | 0 mm | 0.89 m/s, 140° | 0 W/m² | - |
| 1777592697 | 26.11° C | 92% | 1006.8 hPa | 0 mm | 0.89 m/s, 127° | 0 W/m² | - |
| 1777592637 | 26.11° C | 92% | 1006.6 hPa | 0 mm | 0.45 m/s, 112° | 0 W/m² | - |
| 1777592575 | 26.11° C | 92% | 1006.8 hPa | 0 mm | 0.89 m/s, 129° | 0 W/m² | - |
| 1777592514 | 26.11° C | 92% | 1006.8 hPa | 0 mm | 0.45 m/s, 137° | 0 W/m² | - |
| 1777592453 | 26.11° C | 92% | 1006.7 hPa | 0 mm | 1.34 m/s, 116° | 0 W/m² | - |
| 1777592392 | 26.11° C | 92% | 1006.7 hPa | 0 mm | 0.89 m/s, 90° | 0 W/m² | - |
| 1777592331 | 26.11° C | 92% | 1006.9 hPa | 0 mm | 0.89 m/s, 118° | 0 W/m² | - |
| 1777592270 | 26.11° C | 92% | 1006.7 hPa | 0 mm | 0.89 m/s, 112° | 0 W/m² | - |
| 1777592209 | 26.11° C | 92% | 1006.7 hPa | 0 mm | 0.45 m/s, 113° | 0 W/m² | - |
* Rain latest hour (hover to see other rain measurements)
** Current wind speed in m/s (hover to see current wind gust speed)